| time (UTC) | temp F | wind direction | speed knots | gust knots | rain 1hr in | rain 24hr in | rain mn in | humidity % | barometer mb |
| 20260505221826 | 66 | 99 | 0.0 | 1.7 | 0.00 | 0.00 | 0.00 | 64 | 1017.8 |
| 20260505220324 | 65 | 61 | 0.0 | 0.9 | 0.00 | 0.00 | 0.00 | 67 | 1017.7 |
| 20260505214817 | 64 | 62 | 0.0 | 0.9 | 0.00 | 0.00 | 0.00 | 69 | 1017.6 |
| 20260505213338 | 62 | 77 | 0.0 | 0.9 | 0.00 | 0.00 | 0.00 | 72 | 1017.7 |
| 20260505211829 | 62 | 74 | 0.0 | 0.9 | 0.00 | 0.00 | 0.00 | 72 | 1017.8 |
| 20260505210319 | 60 | 94 | 0.0 | 0.0 | 0.00 | 0.00 | 0.00 | 74 | 1017.6 |
| 20260505204834 | 57 | 93 | 0.0 | 0.0 | 0.00 | 0.00 | 0.00 | 78 | 1017.6 |
| 20260505203324 | 56 | 86 | 0.0 | 0.0 | 0.00 | 0.00 | 0.00 | 78 | 1017.4 |
| 20260505201816 | 55 | 90 | 0.0 | 0.9 | 0.00 | 0.00 | 0.00 | 79 | 1017.4 |
| 20260505200334 | 55 | 91 | 0.0 | 0.0 | 0.00 | 0.00 | 0.00 | 77 | 1017.4 |
| 20260505194826 | 56 | 100 | 0.0 | 0.9 | 0.00 | 0.00 | 0.00 | 75 | 1017.2 |
| 20260505193348 | 55 | 72 | 0.0 | 0.9 | 0.00 | 0.00 | 0.00 | 77 | 1017.2 |
| 20260505191816 | 56 | 92 | 0.0 | 0.9 | 0.00 | 0.00 | 0.00 | 72 | 1017.3 |
| 20260505190338 | 57 | 95 | 0.0 | 0.9 | 0.00 | 0.00 | 0.00 | 72 | 1017.2 |
| 20260505184825 | 56 | 87 | 0.0 | 0.0 | 0.00 | 0.00 | 0.00 | 70 | 1017.3 |
| 20260505183324 | 57 | 89 | 0.0 | 0.9 | 0.00 | 0.00 | 0.00 | 69 | 1017.2 |
| 20260505181818 | 56 | 70 | 0.0 | 0.9 | 0.00 | 0.00 | 0.00 | 70 | 1017.2 |
| 20260505180321 | 55 | 88 | 0.0 | 0.9 | 0.00 | 0.00 | 0.00 | 69 | 1017.3 |
| 20260505174826 | 55 | 120 | 0.0 | 0.9 | 0.00 | 0.00 | 0.00 | 67 | 1017.3 |
| 20260505173350 | 56 | 80 | 0.0 | 0.9 | 0.00 | 0.00 | 0.00 | 64 | 1017.3 |
| 20260505171822 | 57 | 87 | 0.0 | 1.7 | 0.00 | 0.00 | 0.00 | 61 | 1017.3 |
| 20260505170322 | 57 | 106 | 0.0 | 1.7 | 0.00 | 0.00 | 0.00 | 60 | 1017.3 |
| 20260505164852 | 57 | 89 | 0.0 | 0.9 | 0.00 | 0.00 | 0.00 | 56 | 1017.3 |
| 20260505163331 | 57 | 49 | 0.0 | 1.7 | 0.00 | 0.00 | 0.00 | 54 | 1017.3 |
| 20260505161825 | 56 | 86 | 0.0 | 0.9 | 0.00 | 0.00 | 0.00 | 53 | 1017.6 |
| 20260505160330 | 56 | 92 | 0.0 | 1.7 | 0.00 | 0.00 | 0.00 | 53 | 1017.4 |
| 20260505153345 | 56 | 92 | 0.0 | 0.9 | 0.00 | 0.00 | 0.00 | 54 | 1017.7 |
| 20260505151819 | 56 | 83 | 0.0 | 0.9 | 0.00 | 0.00 | 0.00 | 55 | 1017.7 |
| 20260505150324 | 56 | 90 | 0.0 | 0.9 | 0.00 | 0.00 | 0.00 | 54 | 1017.7 |
| 20260505140319 | 56 | 313 | 0.0 | 0.9 | 0.00 | 0.00 | 0.00 | 61 | 1017.9 |
| 20260505124833 | 57 | 64 | 0.0 | 0.9 | 0.00 | 0.00 | 0.00 | 68 | 1018.1 |
| 20260505123329 | 57 | 84 | 0.0 | 0.9 | 0.00 | 0.00 | 0.00 | 68 | 1018.1 |
| 20260505121827 | 57 | 94 | 0.0 | 0.9 | 0.00 | 0.00 | 0.00 | 69 | 1018.0 |
| 20260505120324 | 57 | 89 | 0.0 | 0.9 | 0.00 | 0.00 | 0.00 | 69 | 1017.9 |
| 20260505114833 | 57 | 103 | 0.0 | 0.9 | 0.00 | 0.00 | 0.00 | 70 | 1017.7 |
| 20260505113330 | 57 | 89 | 0.0 | 0.9 | 0.00 | 0.00 | 0.00 | 69 | 1017.4 |
| 20260505111840 | 58 | 86 | 0.0 | 0.9 | 0.00 | 0.00 | 0.00 | 67 | 1017.7 |
| 20260505110352 | 58 | 87 | 0.0 | 1.7 | 0.00 | 0.00 | 0.00 | 66 | 1017.4 |
| 20260505101840 | 59 | 88 | 0.0 | 1.7 | 0.00 | 0.00 | 0.00 | 63 | 1017.0 |
| 20260505100328 | 59 | 70 | 0.0 | 0.9 | 0.00 | 0.00 | 0.00 | 64 | 1017.0 |
| 20260505094829 | 60 | 82 | 0.0 | 1.7 | 0.00 | 0.00 | 0.00 | 65 | 1016.7 |
| 20260505093318 | 60 | 76 | 0.0 | 2.6 | 0.00 | 0.00 | 0.00 | 65 | 1016.5 |
| 20260505091838 | 60 | 81 | 0.0 | 1.7 | 0.00 | 0.00 | 0.00 | 66 | 1016.2 |
| 20260505090354 | 61 | 84 | 0.0 | 0.9 | 0.00 | 0.00 | 0.00 | 66 | 1016.1 |
| 20260505084836 | 62 | 81 | 0.0 | 2.6 | 0.00 | 0.00 | 0.00 | 65 | 1016.1 |
| 20260505083331 | 63 | 295 | 0.9 | 2.6 | 0.00 | 0.00 | 0.00 | 61 | 1016.1 |
| 20260505081815 | 64 | 108 | 0.0 | 2.6 | 0.00 | 0.00 | 0.00 | 59 | 1016.1 |
| 20260505080327 | 64 | 60 | 0.0 | 2.6 | 0.00 | 0.00 | 0.00 | 58 | 1016.1 |
| 20260505074826 | 64 | 324 | 0.9 | 2.6 | 0.00 | 0.00 | 0.00 | 57 | 1016.0 |
| 20260505073323 | 64 | 295 | 0.9 | 2.6 | 0.00 | 0.00 | 0.00 | 58 | 1015.8 |
| 20260505071900 | 64 | 253 | 0.0 | 2.6 | 0.00 | 0.00 | 0.00 | 56 | 1015.7 |
| 20260505070327 | 64 | 281 | 0.0 | 2.6 | 0.00 | 0.00 | 0.00 | 57 | 1015.8 |
| 20260505064827 | 64 | 290 | 0.9 | 4.3 | 0.00 | 0.00 | 0.00 | 56 | 1015.7 |
| 20260505063322 | 64 | 58 | 0.9 | 3.5 | 0.00 | 0.00 | 0.00 | 54 | 1015.6 |
| 20260505061823 | 64 | 35 | 0.9 | 3.5 | 0.00 | 0.00 | 0.00 | 58 | 1015.5 |
| 20260505060356 | 63 | 316 | 0.9 | 3.5 | 0.00 | 0.00 | 0.00 | 58 | 1015.5 |
| 20260505054837 | 64 | 27 | 0.9 | 3.5 | 0.00 | 0.00 | 0.00 | 57 | 1015.4 |
| 20260505053350 | 65 | 299 | 0.9 | 2.6 | 0.00 | 0.00 | 0.00 | 54 | 1015.3 |
| 20260505051849 | 64 | 292 | 0.9 | 2.6 | 0.00 | 0.00 | 0.00 | 53 | 1015.5 |
| 20260505050321 | 63 | 300 | 0.9 | 3.5 | 0.00 | 0.00 | 0.00 | 53 | 1015.6 |
| 20260505040321 | 63 | 293 | 0.9 | 4.3 | 0.00 | 0.00 | 0.00 | 55 | 1015.6 |
| 20260505034827 | 62 | 283 | 0.9 | 3.5 | 0.00 | 0.00 | 0.00 | 56 | 1015.7 |
| 20260505033334 | 63 | 307 | 0.0 | 5.2 | 0.00 | 0.00 | 0.00 | 57 | 1015.5 |
| 20260505031839 | 64 | 240 | 1.7 | 3.5 | 0.00 | 0.00 | 0.00 | 53 | 1015.6 |
| 20260505030329 | 75 | 95 | 0.0 | 0.9 | 0.00 | 0.00 | 0.00 | 32 | 1015.6 |
| 20260505024833 | 73 | 97 | 0.0 | 0.9 | 0.00 | 0.00 | 0.00 | 34 | 1015.6 |
| 20260505023326 | 73 | 94 | 0.0 | 0.9 | 0.00 | 0.00 | 0.00 | 34 | 1015.5 |
| 20260505021846 | 73 | 84 | 0.0 | 0.9 | 0.00 | 0.00 | 0.00 | 35 | 1015.5 |
| 20260505020316 | 72 | 107 | 0.9 | 2.6 | 0.00 | 0.00 | 0.00 | 37 | 1015.4 |
| 20260505014830 | 72 | 93 | 0.0 | 0.9 | 0.00 | 0.00 | 0.00 | 37 | 1015.7 |
| 20260505013325 | 70 | 93 | 0.0 | 0.9 | 0.00 | 0.00 | 0.00 | 39 | 1015.6 |
| 20260505011840 | 71 | 102 | 0.0 | 0.9 | 0.00 | 0.00 | 0.00 | 37 | 1015.7 |
| 20260505010334 | 70 | 91 | 0.0 | 0.9 | 0.00 | 0.00 | 0.00 | 39 | 1015.6 |
| 20260505004818 | 70 | 81 | 0.0 | 0.9 | 0.00 | 0.00 | 0.00 | 41 | 1015.4 |
| 20260505003355 | 68 | 100 | 0.0 | 1.7 | 0.00 | 0.00 | 0.00 | 42 | 1015.3 |
| 20260505001836 | 68 | 90 | 0.0 | 0.9 | 0.00 | 0.00 | 0.00 | 44 | 1015.2 |
| 20260505000346 | 66 | 91 | 0.0 | 1.7 | 0.00 | 0.00 | 0.00 | 45 | 1015.0 |
| 20260504234845 | 66 | 110 | 0.0 | 0.9 | 0.00 | 0.00 | 0.00 | 45 | 1014.8 |
| 20260504233334 | 65 | 71 | 0.0 | 0.9 | 0.00 | 0.00 | 0.00 | 47 | 1014.8 |
| 20260504231841 | 63 | 93 | 0.0 | 0.9 | 0.00 | 0.00 | 0.00 | 49 | 1014.8 |
| 20260504230331 | 61 | 101 | 0.0 | 2.6 | 0.00 | 0.00 | 0.00 | 51 | 1014.7 |
| 20260504224836 | 60 | 131 | 0.0 | 1.7 | 0.00 | 0.00 | 0.00 | 53 | 1014.5 |
| 20260504223328 | 59 | 110 | 0.0 | 1.7 | 0.00 | 0.00 | 0.00 | 57 | 1014.3 |